| time (UTC) | temp F | wind direction | speed knots | gust knots | rain 1hr in | rain 24hr in | rain mn in | humidity % | barometer mb |
| 20260831222517 | 66 | 125 | 4.3 | 0.0 | 0.00 | 0.00 | 0.00 | 91 | 1016.8 |
| 20260831222015 | 66 | 124 | 4.3 | 0.0 | 0.00 | 0.00 | 0.00 | 91 | 1016.8 |
| 20260831221516 | 66 | 115 | 4.3 | 0.0 | 0.00 | 0.00 | 0.00 | 91 | 1016.8 |
| 20260831221015 | 66 | 121 | 2.6 | 0.0 | 0.00 | 0.00 | 0.00 | 90 | 1016.9 |
| 20260831220517 | 66 | 138 | 1.7 | 0.0 | 0.00 | 0.00 | 0.00 | 90 | 1017.0 |
| 20260831220016 | 66 | 139 | 3.5 | 0.0 | 0.00 | 0.00 | 0.00 | 90 | 1017.0 |
| 20260831215516 | 66 | 129 | 3.5 | 0.0 | 0.00 | 0.00 | 0.00 | 90 | 1017.0 |
| 20260831215016 | 66 | 96 | 3.5 | 0.0 | 0.00 | 0.00 | 0.00 | 89 | 1017.0 |
| 20260831214515 | 67 | 106 | 1.7 | 0.0 | 0.00 | 0.00 | 0.00 | 89 | 1017.2 |
| 20260831214017 | 67 | 134 | 0.9 | 0.0 | 0.00 | 0.00 | 0.00 | 88 | 1017.2 |
| 20260831213516 | 67 | 215 | 0.9 | 0.0 | 0.00 | 0.00 | 0.00 | 87 | 1017.2 |
| 20260831213014 | 67 | 198 | 2.6 | 0.0 | 0.00 | 0.00 | 0.00 | 86 | 1017.2 |
| 20260831212515 | 68 | 224 | 5.2 | 0.0 | 0.00 | 0.00 | 0.00 | 86 | 1017.2 |
| 20260831212015 | 68 | 235 | 7.8 | 0.0 | 0.00 | 0.00 | 0.00 | 87 | 1017.2 |
| 20260831211525 | 68 | 243 | 10.4 | 0.0 | 0.00 | 0.00 | 0.00 | 87 | 1017.2 |
| 20260831211013 | 69 | 240 | 10.4 | 0.0 | 0.00 | 0.00 | 0.00 | 86 | 1017.2 |
| 20260831210513 | 69 | 254 | 11.3 | 0.0 | 0.00 | 0.00 | 0.00 | 85 | 1017.2 |
| 20260831210014 | 70 | 246 | 15.6 | 0.0 | 0.00 | 0.00 | 0.00 | 84 | 1017.1 |
| 20260831205513 | 70 | 244 | 16.5 | 0.0 | 0.00 | 0.00 | 0.00 | 83 | 1017.1 |
| 20260831205013 | 71 | 252 | 15.6 | 0.0 | 0.00 | 0.00 | 0.00 | 82 | 1017.0 |
| 20260831204513 | 71 | 258 | 9.6 | 0.0 | 0.00 | 0.00 | 0.00 | 82 | 1017.1 |
| 20260831204013 | 72 | 246 | 7.0 | 0.0 | 0.00 | 0.00 | 0.00 | 80 | 1017.0 |
| 20260831203513 | 72 | 240 | 7.0 | 0.0 | 0.00 | 0.00 | 0.00 | 79 | 1017.0 |
| 20260831203018 | 73 | 213 | 4.3 | 0.0 | 0.00 | 0.00 | 0.00 | 79 | 1016.8 |
| 20260831202511 | 73 | 221 | 1.7 | 0.0 | 0.00 | 0.00 | 0.00 | 76 | 1016.7 |
| 20260831202012 | 73 | 236 | 3.5 | 0.0 | 0.00 | 0.00 | 0.00 | 78 | 1016.7 |
| 20260831201511 | 73 | 252 | 4.3 | 0.0 | 0.00 | 0.00 | 0.00 | 77 | 1016.7 |
| 20260831201012 | 73 | 257 | 2.6 | 0.0 | 0.00 | 0.00 | 0.00 | 77 | 1016.7 |
| 20260831200512 | 73 | 247 | 2.6 | 0.0 | 0.00 | 0.00 | 0.00 | 75 | 1016.8 |
| 20260831200011 | 73 | 252 | 2.6 | 0.0 | 0.00 | 0.00 | 0.00 | 76 | 1016.7 |
| 20260831195513 | 73 | 267 | 1.7 | 0.0 | 0.00 | 0.00 | 0.00 | 76 | 1016.8 |
| 20260831195010 | 73 | 302 | 2.6 | 0.0 | 0.00 | 0.00 | 0.00 | 73 | 1016.9 |
| 20260831194511 | 73 | 303 | 2.6 | 0.0 | 0.00 | 0.00 | 0.00 | 75 | 1016.8 |
| 20260831194009 | 73 | 275 | 0.9 | 0.0 | 0.00 | 0.00 | 0.00 | 75 | 1016.9 |
| 20260831193510 | 73 | 284 | 0.9 | 0.0 | 0.00 | 0.00 | 0.00 | 75 | 1016.9 |
| 20260831193009 | 73 | 284 | 1.7 | 0.0 | 0.00 | 0.00 | 0.00 | 73 | 1016.9 |
| 20260831192508 | 73 | 285 | 1.7 | 0.0 | 0.00 | 0.00 | 0.00 | 74 | 1016.9 |
| 20260831192009 | 73 | 285 | 2.6 | 0.0 | 0.00 | 0.00 | 0.00 | 74 | 1016.9 |
| 20260831191508 | 73 | 284 | 2.6 | 0.0 | 0.00 | 0.00 | 0.00 | 75 | 1017.0 |
| 20260831191008 | 73 | 291 | 3.5 | 0.0 | 0.00 | 0.00 | 0.00 | 75 | 1017.0 |
| 20260831190507 | 73 | 293 | 3.5 | 0.0 | 0.00 | 0.00 | 0.00 | 74 | 1017.1 |
| 20260831190007 | 73 | 292 | 3.5 | 0.0 | 0.00 | 0.00 | 0.00 | 72 | 1017.1 |
| 20260831185506 | 73 | 290 | 3.5 | 0.0 | 0.00 | 0.00 | 0.00 | 73 | 1017.3 |
| 20260831185005 | 73 | 298 | 3.5 | 0.0 | 0.00 | 0.00 | 0.00 | 72 | 1017.4 |
| 20260831184505 | 73 | 304 | 3.5 | 0.0 | 0.00 | 0.00 | 0.00 | 71 | 1017.5 |
| 20260831184005 | 73 | 323 | 3.5 | 0.0 | 0.00 | 0.00 | 0.00 | 74 | 1017.6 |
| 20260831183505 | 73 | 319 | 3.5 | 0.0 | 0.00 | 0.00 | 0.00 | 74 | 1017.6 |
| 20260831183005 | 73 | 321 | 3.5 | 0.0 | 0.00 | 0.00 | 0.00 | 74 | 1017.7 |
| 20260831182504 | 73 | 323 | 4.3 | 0.0 | 0.00 | 0.00 | 0.00 | 75 | 1017.7 |
| 20260831182004 | 73 | 316 | 5.2 | 0.0 | 0.00 | 0.00 | 0.00 | 73 | 1017.9 |
| 20260831181504 | 73 | 306 | 5.2 | 0.0 | 0.00 | 0.00 | 0.00 | 75 | 1017.9 |
| 20260831181004 | 73 | 306 | 5.2 | 0.0 | 0.00 | 0.00 | 0.00 | 72 | 1017.9 |
| 20260831180504 | 73 | 292 | 4.3 | 0.0 | 0.00 | 0.00 | 0.00 | 71 | 1017.9 |
| 20260831180003 | 73 | 286 | 5.2 | 0.0 | 0.00 | 0.00 | 0.00 | 73 | 1017.8 |
| 20260831175504 | 74 | 290 | 5.2 | 0.0 | 0.00 | 0.00 | 0.00 | 73 | 1017.9 |
| 20260831175003 | 74 | 281 | 6.1 | 0.0 | 0.00 | 0.00 | 0.00 | 74 | 1017.9 |
| 20260831174502 | 74 | 265 | 5.2 | 0.0 | 0.00 | 0.00 | 0.00 | 76 | 1017.9 |
| 20260831174002 | 73 | 255 | 6.1 | 0.0 | 0.00 | 0.00 | 0.00 | 75 | 1017.9 |
| 20260831173601 | 73 | 271 | 7.0 | 0.0 | 0.00 | 0.00 | 0.00 | 73 | 1018.0 |
| 20260831173100 | 73 | 271 | 7.0 | 0.0 | 0.00 | 0.00 | 0.00 | 74 | 1018.1 |
| 20260831172559 | 73 | 265 | 7.0 | 0.0 | 0.00 | 0.00 | 0.00 | 77 | 1018.2 |
| 20260831172057 | 72 | 273 | 6.1 | 0.0 | 0.00 | 0.00 | 0.00 | 78 | 1018.2 |
| 20260831171558 | 72 | 286 | 5.2 | 0.0 | 0.00 | 0.00 | 0.00 | 76 | 1018.2 |
| 20260831171055 | 72 | 283 | 5.2 | 0.0 | 0.00 | 0.00 | 0.00 | 75 | 1018.3 |
| 20260831170555 | 71 | 284 | 4.3 | 0.0 | 0.00 | 0.00 | 0.00 | 77 | 1018.2 |
| 20260831170053 | 71 | 294 | 3.5 | 0.0 | 0.00 | 0.00 | 0.00 | 76 | 1018.1 |
| 20260831165557 | 71 | 294 | 4.3 | 0.0 | 0.00 | 0.00 | 0.00 | 78 | 1018.2 |
| 20260831165053 | 71 | 294 | 5.2 | 0.0 | 0.00 | 0.00 | 0.00 | 77 | 1018.3 |
| 20260831164555 | 71 | 279 | 5.2 | 0.0 | 0.00 | 0.00 | 0.00 | 81 | 1018.3 |
| 20260831164054 | 71 | 285 | 4.3 | 0.0 | 0.00 | 0.00 | 0.00 | 81 | 1018.6 |
| 20260831163552 | 71 | 301 | 4.3 | 0.0 | 0.00 | 0.00 | 0.00 | 79 | 1018.8 |
| 20260831163051 | 71 | 306 | 5.2 | 0.0 | 0.00 | 0.00 | 0.00 | 78 | 1018.8 |
| 20260831162552 | 71 | 284 | 5.2 | 0.0 | 0.00 | 0.00 | 0.00 | 80 | 1018.8 |
| 20260831162050 | 70 | 281 | 5.2 | 0.0 | 0.00 | 0.00 | 0.00 | 81 | 1018.8 |
| 20260831161548 | 70 | 281 | 6.1 | 0.0 | 0.00 | 0.00 | 0.00 | 83 | 1018.8 |
| 20260831161049 | 70 | 286 | 5.2 | 0.0 | 0.00 | 0.00 | 0.00 | 82 | 1018.9 |
| 20260831160546 | 69 | 284 | 4.3 | 0.0 | 0.00 | 0.00 | 0.00 | 83 | 1018.8 |
| 20260831160045 | 69 | 264 | 4.3 | 0.0 | 0.00 | 0.00 | 0.00 | 85 | 1018.8 |
| 20260831155545 | 69 | 285 | 3.5 | 0.0 | 0.00 | 0.00 | 0.00 | 83 | 1019.1 |
| 20260831155045 | 68 | 292 | 3.5 | 0.0 | 0.00 | 0.00 | 0.00 | 83 | 1018.9 |
| 20260831154545 | 69 | 301 | 2.6 | 0.0 | 0.00 | 0.00 | 0.00 | 82 | 1019.0 |
| 20260831154045 | 69 | 302 | 3.5 | 0.0 | 0.00 | 0.00 | 0.00 | 81 | 1019.0 |
| 20260831153547 | 68 | 300 | 3.5 | 0.0 | 0.00 | 0.00 | 0.00 | 83 | 1019.1 |
| 20260831153043 | 69 | 300 | 4.3 | 0.0 | 0.00 | 0.00 | 0.00 | 82 | 1019.2 |
| 20260831152544 | 69 | 283 | 5.2 | 0.0 | 0.00 | 0.00 | 0.00 | 83 | 1019.2 |
| 20260831152042 | 68 | 288 | 5.2 | 0.0 | 0.00 | 0.00 | 0.00 | 82 | 1019.3 |
| 20260831151542 | 68 | 288 | 4.3 | 0.0 | 0.00 | 0.00 | 0.00 | 84 | 1019.3 |
| 20260831151041 | 68 | 296 | 4.3 | 0.0 | 0.00 | 0.00 | 0.00 | 83 | 1019.2 |
| 20260831150540 | 68 | 293 | 4.3 | 0.0 | 0.00 | 0.00 | 0.00 | 84 | 1019.4 |
| 20260831150038 | 67 | 287 | 4.3 | 0.0 | 0.00 | 0.00 | 0.00 | 86 | 1019.4 |
| 20260831145540 | 67 | 275 | 4.3 | 0.0 | 0.00 | 0.00 | 0.00 | 86 | 1019.4 |
| 20260831145036 | 67 | 277 | 3.5 | 0.0 | 0.00 | 0.00 | 0.00 | 88 | 1019.3 |
| 20260831144535 | 66 | 270 | 2.6 | 0.0 | 0.00 | 0.00 | 0.00 | 88 | 1019.2 |
| 20260831144034 | 66 | 284 | 1.7 | 0.0 | 0.00 | 0.00 | 0.00 | 88 | 1019.1 |
| 20260831143535 | 65 | 284 | 1.7 | 0.0 | 0.00 | 0.00 | 0.00 | 89 | 1019.1 |
| 20260831143039 | 65 | 284 | 2.6 | 0.0 | 0.00 | 0.00 | 0.00 | 89 | 1019.2 |
| 20260831142534 | 65 | 303 | 1.7 | 0.0 | 0.00 | 0.00 | 0.00 | 89 | 1019.3 |
| 20260831142034 | 65 | 319 | 1.7 | 0.0 | 0.00 | 0.00 | 0.00 | 91 | 1019.1 |
| 20260831141533 | 64 | 319 | 1.7 | 0.0 | 0.00 | 0.00 | 0.00 | 91 | 1019.2 |
| 20260831141033 | 64 | 319 | 1.7 | 0.0 | 0.00 | 0.00 | 0.00 | 91 | 1019.3 |
| 20260831140535 | 64 | 319 | 1.7 | 0.0 | 0.00 | 0.00 | 0.00 | 91 | 1019.3 |
| 20260831140034 | 64 | 319 | 1.7 | 0.0 | 0.00 | 0.00 | 0.00 | 92 | 1019.3 |
| 20260831135533 | 63 | 319 | 1.7 | 0.0 | 0.00 | 0.00 | 0.00 | 94 | 1019.4 |
| 20260831135033 | 63 | 337 | 1.7 | 0.0 | 0.00 | 0.00 | 0.00 | 93 | 1019.3 |
| 20260831134533 | 63 | 340 | 1.7 | 0.0 | 0.00 | 0.00 | 0.00 | 94 | 1019.1 |
| 20260831134032 | 63 | 332 | 1.7 | 0.0 | 0.00 | 0.00 | 0.00 | 94 | 1019.2 |
| 20260831133533 | 63 | 331 | 1.7 | 0.0 | 0.00 | 0.00 | 0.00 | 94 | 1019.3 |
| 20260831133032 | 63 | 334 | 2.6 | 0.0 | 0.00 | 0.00 | 0.00 | 94 | 1019.3 |
| 20260831132532 | 63 | 334 | 3.5 | 0.0 | 0.00 | 0.00 | 0.00 | 94 | 1019.4 |
| 20260831132032 | 62 | 331 | 2.6 | 0.0 | 0.00 | 0.00 | 0.00 | 95 | 1019.3 |
| 20260831131543 | 62 | 9 | 0.9 | 0.0 | 0.00 | 0.00 | 0.00 | 94 | 1019.4 |
| 20260831131033 | 62 | 9 | 0.9 | 0.0 | 0.00 | 0.00 | 0.00 | 95 | 1019.4 |
| 20260831130531 | 62 | 5 | 0.9 | 0.0 | 0.00 | 0.00 | 0.00 | 95 | 1019.5 |
| 20260831130034 | 62 | 16 | 0.9 | 0.0 | 0.00 | 0.00 | 0.00 | 95 | 1019.4 |
| 20260831125531 | 62 | 80 | 0.9 | 0.0 | 0.00 | 0.00 | 0.00 | 95 | 1019.5 |
| 20260831125033 | 62 | 82 | 1.7 | 0.0 | 0.00 | 0.00 | 0.00 | 95 | 1019.4 |
| 20260831124531 | 62 | 28 | 1.7 | 0.0 | 0.00 | 0.00 | 0.00 | 95 | 1019.5 |
| 20260831124031 | 62 | 37 | 2.6 | 0.0 | 0.00 | 0.00 | 0.00 | 95 | 1019.5 |
| 20260831123530 | 62 | 342 | 2.6 | 0.0 | 0.00 | 0.00 | 0.00 | 95 | 1019.4 |
| 20260831123030 | 61 | 9 | 0.9 | 0.0 | 0.00 | 0.00 | 0.00 | 96 | 1019.5 |
| 20260831122530 | 61 | 52 | 0.9 | 0.0 | 0.00 | 0.00 | 0.00 | 96 | 1019.5 |
| 20260831122030 | 61 | 105 | 1.7 | 0.0 | 0.00 | 0.00 | 0.00 | 96 | 1019.5 |
| 20260831121531 | 61 | 106 | 1.7 | 0.0 | 0.00 | 0.00 | 0.00 | 96 | 1019.5 |
| 20260831121031 | 61 | 80 | 1.7 | 0.0 | 0.00 | 0.00 | 0.00 | 96 | 1019.5 |
| 20260831120529 | 61 | 81 | 1.7 | 0.0 | 0.00 | 0.00 | 0.00 | 96 | 1019.5 |
| 20260831120028 | 61 | 102 | 1.7 | 0.0 | 0.00 | 0.00 | 0.00 | 96 | 1019.5 |
| 20260831115528 | 60 | 101 | 2.6 | 0.0 | 0.00 | 0.00 | 0.00 | 96 | 1019.5 |
| 20260831115032 | 60 | 97 | 2.6 | 0.0 | 0.00 | 0.00 | 0.00 | 96 | 1019.6 |
| 20260831114527 | 60 | 80 | 2.6 | 0.0 | 0.00 | 0.00 | 0.00 | 96 | 1019.5 |
| 20260831114027 | 59 | 105 | 2.6 | 0.0 | 0.00 | 0.00 | 0.00 | 96 | 1019.4 |
| 20260831113527 | 59 | 114 | 3.5 | 0.0 | 0.00 | 0.00 | 0.00 | 96 | 1019.3 |
| 20260831113026 | 59 | 119 | 2.6 | 0.0 | 0.00 | 0.00 | 0.00 | 96 | 1019.3 |
| 20260831112526 | 59 | 134 | 1.7 | 0.0 | 0.00 | 0.00 | 0.00 | 96 | 1019.3 |
| 20260831112025 | 58 | 134 | 2.6 | 0.0 | 0.00 | 0.00 | 0.00 | 95 | 1019.3 |
| 20260831111526 | 58 | 134 | 1.7 | 0.0 | 0.00 | 0.00 | 0.00 | 96 | 1019.3 |
| 20260831111025 | 58 | 133 | 0.0 | 0.0 | 0.00 | 0.00 | 0.00 | 95 | 1019.2 |
| 20260831110524 | 58 | 133 | 0.0 | 0.0 | 0.00 | 0.00 | 0.00 | 95 | 1019.2 |
| 20260831110026 | 58 | 133 | 1.7 | 0.0 | 0.00 | 0.00 | 0.00 | 95 | 1019.1 |
| 20260831105523 | 58 | 133 | 3.5 | 0.0 | 0.00 | 0.00 | 0.00 | 95 | 1019.0 |
| 20260831105022 | 57 | 132 | 3.5 | 0.0 | 0.00 | 0.00 | 0.00 | 94 | 1019.0 |
| 20260831104527 | 57 | 133 | 3.5 | 0.0 | 0.00 | 0.00 | 0.00 | 94 | 1018.9 |
| 20260831104024 | 57 | 135 | 2.6 | 0.0 | 0.00 | 0.00 | 0.00 | 94 | 1018.8 |
| 20260831103525 | 57 | 135 | 2.6 | 0.0 | 0.00 | 0.00 | 0.00 | 94 | 1018.8 |
| 20260831103022 | 57 | 132 | 3.5 | 0.0 | 0.00 | 0.00 | 0.00 | 93 | 1018.7 |
| 20260831102519 | 57 | 131 | 1.7 | 0.0 | 0.00 | 0.00 | 0.00 | 93 | 1018.6 |
| 20260831102019 | 58 | 130 | 0.9 | 0.0 | 0.00 | 0.00 | 0.00 | 93 | 1018.7 |
| 20260831101519 | 58 | 130 | 1.7 | 0.0 | 0.00 | 0.00 | 0.00 | 93 | 1018.7 |
| 20260831101017 | 58 | 130 | 2.6 | 0.0 | 0.00 | 0.00 | 0.00 | 93 | 1018.7 |
| 20260831100518 | 58 | 130 | 1.7 | 0.0 | 0.00 | 0.00 | 0.00 | 93 | 1018.7 |
| 20260831100016 | 58 | 130 | 0.0 | 0.0 | 0.00 | 0.00 | 0.00 | 93 | 1018.6 |
| 20260831095516 | 58 | 130 | 0.9 | 0.0 | 0.00 | 0.00 | 0.00 | 93 | 1018.6 |
| 20260831095015 | 58 | 130 | 0.9 | 0.0 | 0.00 | 0.00 | 0.00 | 94 | 1018.5 |
| 20260831094516 | 58 | 128 | 0.9 | 0.0 | 0.00 | 0.00 | 0.00 | 94 | 1018.4 |
| 20260831094015 | 58 | 129 | 0.9 | 0.0 | 0.00 | 0.00 | 0.00 | 94 | 1018.4 |
| 20260831093516 | 58 | 130 | 0.0 | 0.0 | 0.00 | 0.00 | 0.00 | 93 | 1018.4 |
| 20260831093014 | 59 | 129 | 0.0 | 0.0 | 0.00 | 0.00 | 0.00 | 93 | 1018.3 |
| 20260831092513 | 59 | 126 | 0.0 | 0.0 | 0.00 | 0.00 | 0.00 | 93 | 1018.4 |
| 20260831092012 | 59 | 126 | 0.0 | 0.0 | 0.00 | 0.00 | 0.00 | 94 | 1018.3 |
| 20260831091511 | 59 | 126 | 0.9 | 0.0 | 0.00 | 0.00 | 0.00 | 94 | 1018.2 |
| 20260831091012 | 59 | 126 | 1.7 | 0.0 | 0.00 | 0.00 | 0.00 | 94 | 1018.1 |
| 20260831090513 | 59 | 127 | 2.6 | 0.0 | 0.00 | 0.00 | 0.00 | 93 | 1018.0 |
| 20260831090011 | 59 | 127 | 3.5 | 0.0 | 0.00 | 0.00 | 0.00 | 94 | 1018.0 |
| 20260831085510 | 59 | 125 | 3.5 | 0.0 | 0.00 | 0.00 | 0.00 | 93 | 1018.1 |
| 20260831085011 | 59 | 144 | 3.5 | 0.0 | 0.00 | 0.00 | 0.00 | 93 | 1018.1 |
| 20260831084510 | 59 | 129 | 3.5 | 0.0 | 0.00 | 0.00 | 0.00 | 93 | 1018.1 |
| 20260831084009 | 59 | 142 | 2.6 | 0.0 | 0.00 | 0.00 | 0.00 | 93 | 1018.1 |
| 20260831083508 | 59 | 144 | 1.7 | 0.0 | 0.00 | 0.00 | 0.00 | 93 | 1018.2 |
| 20260831083011 | 59 | 141 | 1.7 | 0.0 | 0.00 | 0.00 | 0.00 | 93 | 1018.2 |
| 20260831082508 | 59 | 132 | 0.0 | 0.0 | 0.00 | 0.00 | 0.00 | 93 | 1018.2 |
| 20260831082008 | 59 | 167 | 0.0 | 0.0 | 0.00 | 0.00 | 0.00 | 93 | 1018.2 |
| 20260831081507 | 59 | 167 | 0.9 | 0.0 | 0.00 | 0.00 | 0.00 | 92 | 1018.2 |
| 20260831081008 | 59 | 157 | 1.7 | 0.0 | 0.00 | 0.00 | 0.00 | 92 | 1018.1 |
| 20260831080508 | 59 | 144 | 2.6 | 0.0 | 0.00 | 0.00 | 0.00 | 92 | 1018.0 |
| 20260831080004 | 59 | 144 | 2.6 | 0.0 | 0.00 | 0.00 | 0.00 | 92 | 1017.9 |
| 20260831075503 | 59 | 138 | 2.6 | 0.0 | 0.00 | 0.00 | 0.00 | 92 | 1017.8 |
| 20260831075005 | 60 | 135 | 3.5 | 0.0 | 0.00 | 0.00 | 0.00 | 92 | 1017.8 |
| 20260831074505 | 60 | 116 | 3.5 | 0.0 | 0.00 | 0.00 | 0.00 | 92 | 1017.7 |
| 20260831074004 | 60 | 128 | 4.3 | 0.0 | 0.00 | 0.00 | 0.00 | 92 | 1017.7 |
| 20260831073503 | 60 | 126 | 4.3 | 0.0 | 0.00 | 0.00 | 0.00 | 91 | 1017.6 |
| 20260831073004 | 60 | 129 | 3.5 | 0.0 | 0.00 | 0.00 | 0.00 | 91 | 1017.7 |
| 20260831072500 | 60 | 134 | 2.6 | 0.0 | 0.00 | 0.00 | 0.00 | 91 | 1017.7 |
| 20260831072100 | 60 | 153 | 3.5 | 0.0 | 0.00 | 0.00 | 0.00 | 91 | 1017.7 |
| 20260831071600 | 60 | 155 | 4.3 | 0.0 | 0.00 | 0.00 | 0.00 | 91 | 1017.7 |
| 20260831071059 | 61 | 136 | 3.5 | 0.0 | 0.00 | 0.00 | 0.00 | 90 | 1017.7 |
| 20260831070559 | 61 | 143 | 3.5 | 0.0 | 0.00 | 0.00 | 0.00 | 90 | 1017.7 |
| 20260831070058 | 61 | 134 | 4.3 | 0.0 | 0.00 | 0.00 | 0.00 | 90 | 1017.8 |
| 20260831065557 | 61 | 129 | 3.5 | 0.0 | 0.00 | 0.00 | 0.00 | 90 | 1017.8 |
| 20260831065056 | 61 | 132 | 3.5 | 0.0 | 0.00 | 0.00 | 0.00 | 89 | 1017.8 |
| 20260831064555 | 62 | 132 | 3.5 | 0.0 | 0.00 | 0.00 | 0.00 | 89 | 1017.7 |
| 20260831064054 | 62 | 142 | 2.6 | 0.0 | 0.00 | 0.00 | 0.00 | 89 | 1017.7 |
| 20260831063553 | 62 | 132 | 2.6 | 0.0 | 0.00 | 0.00 | 0.00 | 88 | 1017.8 |
| 20260831063052 | 63 | 130 | 2.6 | 0.0 | 0.00 | 0.00 | 0.00 | 88 | 1017.8 |
| 20260831062552 | 63 | 128 | 3.5 | 0.0 | 0.00 | 0.00 | 0.00 | 87 | 1017.8 |
| 20260831062051 | 63 | 127 | 2.6 | 0.0 | 0.00 | 0.00 | 0.00 | 87 | 1017.7 |
| 20260831061551 | 64 | 123 | 1.7 | 0.0 | 0.00 | 0.00 | 0.00 | 86 | 1017.7 |
| 20260831061052 | 64 | 122 | 1.7 | 0.0 | 0.00 | 0.00 | 0.00 | 86 | 1017.7 |
| 20260831060550 | 65 | 121 | 1.7 | 0.0 | 0.00 | 0.00 | 0.00 | 85 | 1017.6 |
| 20260831060057 | 65 | 75 | 3.5 | 0.0 | 0.00 | 0.00 | 0.00 | 85 | 1017.6 |
| 20260831055553 | 65 | 64 | 4.3 | 0.0 | 0.00 | 0.00 | 0.00 | 87 | 1017.5 |
| 20260831055050 | 65 | 355 | 3.5 | 0.0 | 0.00 | 0.00 | 0.00 | 86 | 1017.5 |
| 20260831054550 | 66 | 347 | 4.3 | 0.0 | 0.00 | 0.00 | 0.00 | 87 | 1017.4 |
| 20260831054051 | 66 | 338 | 4.3 | 0.0 | 0.00 | 0.00 | 0.00 | 86 | 1017.5 |
| 20260831053550 | 66 | 344 | 5.2 | 0.0 | 0.00 | 0.00 | 0.00 | 86 | 1017.5 |
| 20260831053049 | 66 | 337 | 4.3 | 0.0 | 0.00 | 0.00 | 0.00 | 86 | 1017.6 |
| 20260831052548 | 66 | 329 | 4.3 | 0.0 | 0.00 | 0.00 | 0.00 | 86 | 1017.6 |
| 20260831052049 | 66 | 330 | 4.3 | 0.0 | 0.00 | 0.00 | 0.00 | 86 | 1017.7 |
| 20260831051553 | 66 | 5 | 4.3 | 0.0 | 0.00 | 0.00 | 0.00 | 87 | 1017.8 |
| 20260831051046 | 65 | 340 | 6.1 | 0.0 | 0.00 | 0.00 | 0.00 | 88 | 1017.8 |
| 20260831050545 | 64 | 349 | 7.0 | 0.0 | 0.00 | 0.00 | 0.00 | 89 | 1017.8 |
| 20260831050044 | 63 | 336 | 6.1 | 0.0 | 0.00 | 0.00 | 0.00 | 92 | 1017.7 |
| 20260831045544 | 63 | 311 | 5.2 | 0.0 | 0.00 | 0.00 | 0.00 | 92 | 1017.8 |
| 20260831045043 | 63 | 297 | 6.1 | 0.0 | 0.00 | 0.00 | 0.00 | 92 | 1017.8 |
| 20260831044544 | 63 | 282 | 7.0 | 0.0 | 0.00 | 0.00 | 0.00 | 92 | 1017.7 |
| 20260831044041 | 63 | 250 | 7.8 | 0.0 | 0.00 | 0.00 | 0.00 | 92 | 1017.7 |
| 20260831043542 | 63 | 265 | 7.8 | 0.0 | 0.00 | 0.00 | 0.00 | 92 | 1017.6 |
| 20260831043040 | 63 | 299 | 7.8 | 0.0 | 0.00 | 0.00 | 0.00 | 92 | 1017.6 |
| 20260831042541 | 63 | 270 | 7.8 | 0.0 | 0.00 | 0.00 | 0.00 | 92 | 1017.6 |
| 20260831042040 | 63 | 257 | 8.7 | 0.0 | 0.00 | 0.00 | 0.00 | 92 | 1017.5 |
| 20260831041630 | 63 | 258 | 8.7 | 0.0 | 0.00 | 0.00 | 0.00 | 92 | 1017.5 |
| 20260831041039 | 63 | 262 | 7.8 | 0.0 | 0.00 | 0.00 | 0.00 | 91 | 1017.5 |
| 20260831040537 | 63 | 242 | 7.0 | 0.0 | 0.00 | 0.00 | 0.00 | 91 | 1017.6 |
| 20260831040036 | 63 | 254 | 7.0 | 0.0 | 0.00 | 0.00 | 0.00 | 91 | 1017.6 |
| 20260831035536 | 64 | 252 | 7.8 | 0.0 | 0.00 | 0.00 | 0.00 | 91 | 1017.6 |
| 20260831035040 | 64 | 252 | 7.8 | 0.0 | 0.00 | 0.00 | 0.00 | 91 | 1017.6 |
| 20260831034536 | 64 | 252 | 7.8 | 0.0 | 0.00 | 0.00 | 0.00 | 91 | 1017.6 |
| 20260831034035 | 64 | 248 | 8.7 | 0.0 | 0.00 | 0.00 | 0.00 | 91 | 1017.7 |
| 20260831033535 | 64 | 260 | 8.7 | 0.0 | 0.00 | 0.00 | 0.00 | 90 | 1017.7 |
| 20260831033035 | 64 | 249 | 9.6 | 0.0 | 0.00 | 0.00 | 0.00 | 89 | 1017.8 |
| 20260831032534 | 64 | 257 | 6.1 | 0.0 | 0.00 | 0.00 | 0.00 | 89 | 1017.7 |
| 20260831032038 | 64 | 243 | 0.9 | 0.0 | 0.00 | 0.00 | 0.00 | 88 | 1017.7 |
| 20260831031535 | 64 | 173 | 0.0 | 0.0 | 0.00 | 0.00 | 0.00 | 88 | 1017.8 |
| 20260831031036 | 64 | 173 | 0.9 | 0.0 | 0.00 | 0.00 | 0.00 | 88 | 1017.8 |
| 20260831030538 | 64 | 211 | 1.7 | 0.0 | 0.00 | 0.00 | 0.00 | 87 | 1017.7 |
| 20260831030036 | 64 | 242 | 1.7 | 0.0 | 0.00 | 0.00 | 0.00 | 87 | 1017.7 |
| 20260831025534 | 65 | 221 | 2.6 | 0.0 | 0.00 | 0.00 | 0.00 | 87 | 1017.9 |
| 20260831025034 | 65 | 227 | 4.3 | 0.0 | 0.00 | 0.00 | 0.00 | 87 | 1017.9 |
| 20260831024540 | 65 | 257 | 4.3 | 0.0 | 0.00 | 0.00 | 0.00 | 87 | 1017.8 |
| 20260831024035 | 65 | 245 | 5.2 | 0.0 | 0.00 | 0.00 | 0.00 | 86 | 1017.8 |
| 20260831023536 | 65 | 252 | 4.3 | 0.0 | 0.00 | 0.00 | 0.00 | 86 | 1017.8 |
| 20260831023033 | 65 | 248 | 4.3 | 0.0 | 0.00 | 0.00 | 0.00 | 86 | 1017.7 |
| 20260831022532 | 65 | 234 | 5.2 | 0.0 | 0.00 | 0.00 | 0.00 | 86 | 1017.8 |
| 20260831022035 | 65 | 216 | 5.2 | 0.0 | 0.00 | 0.00 | 0.00 | 86 | 1017.8 |
| 20260831021542 | 65 | 223 | 3.5 | 0.0 | 0.00 | 0.00 | 0.00 | 86 | 1017.7 |
| 20260831021033 | 65 | 233 | 3.5 | 0.0 | 0.00 | 0.00 | 0.00 | 86 | 1017.8 |
| 20260831020535 | 65 | 224 | 3.5 | 0.0 | 0.00 | 0.00 | 0.00 | 86 | 1017.8 |
| 20260831020034 | 65 | 225 | 3.5 | 0.0 | 0.00 | 0.00 | 0.00 | 86 | 1017.8 |
| 20260831015532 | 65 | 223 | 2.6 | 0.0 | 0.00 | 0.00 | 0.00 | 85 | 1017.8 |
| 20260831015032 | 66 | 197 | 1.7 | 0.0 | 0.00 | 0.00 | 0.00 | 85 | 1017.7 |
| 20260831014532 | 66 | 217 | 1.7 | 0.0 | 0.00 | 0.00 | 0.00 | 85 | 1017.8 |
| 20260831014032 | 66 | 215 | 1.7 | 0.0 | 0.00 | 0.00 | 0.00 | 85 | 1017.7 |
| 20260831013532 | 66 | 219 | 0.9 | 0.0 | 0.00 | 0.00 | 0.00 | 85 | 1017.7 |
| 20260831013031 | 66 | 213 | 0.0 | 0.0 | 0.00 | 0.00 | 0.00 | 85 | 1017.7 |
| 20260831012531 | 66 | 220 | 0.9 | 0.0 | 0.00 | 0.00 | 0.00 | 85 | 1017.7 |
| 20260831012031 | 66 | 223 | 1.7 | 0.0 | 0.00 | 0.00 | 0.00 | 85 | 1017.7 |
| 20260831011544 | 66 | 213 | 2.6 | 0.0 | 0.00 | 0.00 | 0.00 | 85 | 1017.6 |
| 20260831011031 | 66 | 225 | 2.6 | 0.0 | 0.00 | 0.00 | 0.00 | 84 | 1017.5 |
| 20260831010530 | 66 | 226 | 4.3 | 0.0 | 0.00 | 0.00 | 0.00 | 85 | 1017.5 |
| 20260831010033 | 66 | 227 | 6.1 | 0.0 | 0.00 | 0.00 | 0.00 | 85 | 1017.4 |
| 20260831005531 | 66 | 249 | 7.0 | 0.0 | 0.00 | 0.00 | 0.00 | 86 | 1017.3 |
| 20260831005032 | 66 | 255 | 7.8 | 0.0 | 0.00 | 0.00 | 0.00 | 86 | 1017.2 |
| 20260831004530 | 66 | 247 | 7.8 | 0.0 | 0.00 | 0.00 | 0.00 | 86 | 1017.0 |
| 20260831004029 | 66 | 236 | 7.8 | 0.0 | 0.00 | 0.00 | 0.00 | 86 | 1017.1 |
| 20260831003533 | 67 | 263 | 7.8 | 0.0 | 0.00 | 0.00 | 0.00 | 86 | 1017.0 |
| 20260831003034 | 67 | 257 | 8.7 | 0.0 | 0.00 | 0.00 | 0.00 | 86 | 1016.9 |
| 20260831002529 | 67 | 275 | 9.6 | 0.0 | 0.00 | 0.00 | 0.00 | 86 | 1016.9 |
| 20260831002030 | 67 | 277 | 9.6 | 0.0 | 0.00 | 0.00 | 0.00 | 85 | 1016.9 |
| 20260831001532 | 67 | 282 | 10.4 | 0.0 | 0.00 | 0.00 | 0.00 | 85 | 1016.9 |
| 20260831001031 | 67 | 275 | 11.3 | 0.0 | 0.00 | 0.00 | 0.00 | 86 | 1016.7 |
| 20260831000529 | 67 | 265 | 11.3 | 0.0 | 0.00 | 0.00 | 0.00 | 86 | 1016.7 |
| 20260831000032 | 67 | 266 | 11.3 | 0.0 | 0.00 | 0.00 | 0.00 | 86 | 1016.7 |
| 20260830235529 | 67 | 277 | 11.3 | 0.0 | 0.00 | 0.00 | 0.00 | 86 | 1016.3 |
| 20260830235028 | 67 | 271 | 11.3 | 0.0 | 0.00 | 0.00 | 0.00 | 85 | 1016.4 |
| 20260830234528 | 67 | 261 | 10.4 | 0.0 | 0.00 | 0.00 | 0.00 | 85 | 1016.4 |
| 20260830234030 | 67 | 264 | 10.4 | 0.0 | 0.00 | 0.00 | 0.00 | 85 | 1016.2 |
| 20260830233528 | 67 | 241 | 10.4 | 0.0 | 0.00 | 0.00 | 0.00 | 86 | 1016.2 |
| 20260830233027 | 67 | 360 | 10.4 | 0.0 | 0.00 | 0.00 | 0.00 | 85 | 1016.3 |
| 20260830232527 | 67 | 264 | 11.3 | 0.0 | 0.00 | 0.00 | 0.00 | 85 | 1016.2 |
| 20260830232028 | 67 | 266 | 11.3 | 0.0 | 0.00 | 0.00 | 0.00 | 84 | 1016.2 |
| 20260830231527 | 67 | 256 | 9.6 | 0.0 | 0.00 | 0.00 | 0.00 | 85 | 1016.1 |
| 20260830231031 | 67 | 280 | 9.6 | 0.0 | 0.00 | 0.00 | 0.00 | 84 | 1016.1 |
| 20260830230526 | 67 | 275 | 10.4 | 0.0 | 0.00 | 0.00 | 0.00 | 84 | 1016.1 |
| 20260830230027 | 67 | 267 | 10.4 | 0.0 | 0.00 | 0.00 | 0.00 | 84 | 1016.1 |
| 20260830225526 | 67 | 268 | 8.7 | 0.0 | 0.00 | 0.00 | 0.00 | 85 | 1016.2 |
| 20260830225026 | 67 | 260 | 6.1 | 0.0 | 0.00 | 0.00 | 0.00 | 84 | 1016.2 |
| 20260830224526 | 67 | 244 | 6.1 | 0.0 | 0.00 | 0.00 | 0.00 | 85 | 1016.1 |
| 20260830224028 | 67 | 244 | 7.0 | 0.0 | 0.00 | 0.00 | 0.00 | 85 | 1016.1 |
| 20260830223526 | 67 | 247 | 8.7 | 0.0 | 0.00 | 0.00 | 0.00 | 85 | 1016.1 |
| 20260830223026 | 67 | 250 | 10.4 | 0.0 | 0.00 | 0.00 | 0.00 | 83 | 1016.1 |